Location: Santa Barbara
(34.4500°N, 119.7700°W)
Time: 18:03:01
(UTC-07:00)

Cosmos 1626 Rocket - Visible Passes

Search period start: 27 August 2014 00:00
Search period end: 06 September 2014 00:00
Orbit: 604 x 634 km, 82.5° (Epoch: 26 August)

Date Brightness Start Highest point End Pass type
(mag) Time Alt. Az. Time Alt. Az. Time Alt. Az.
30 Aug 7.0 05:48:57 10° ESE 05:50:47 12° E 05:52:36 10° ENE visible
31 Aug 6.3 06:04:21 10° SE 06:07:52 24° E 06:11:23 10° NE visible
03 Sep 6.8 05:20:12 10° ESE 05:22:13 13° E 05:24:14 10° ENE visible
04 Sep 6.0 05:35:44 10° SE 05:39:19 26° E 05:42:53 10° NE visible
05 Sep 4.5 05:52:18 10° S 05:56:30 51° E 06:00:41 10° NNE visible
